Location: Oulou
(10.7667°N, 12.5167°W)
Time: 10:17:27
(UTC+00:00)

ARIANE 5 DEB (SYLDA) - Pass Details

Date: 20 September 2019
Orbit: 646 x 35671 km, 7.0° (Epoch: 13 October)

Event Time Altitude Azimuth Distance (km) Brightness Sun altitude
Rises 18:51:09 0° 270° (W) 8,505 13.0 -1.7°
Reaches altitude 10° 18:59:29 10° 267° (W) 4,939 9.6 -3.7°
Maximum altitude 19:08:37 51° 192° (SSW) 1,088 4.4 -6.0°
Drops below altitude 10° 19:12:19 10° 113° (ESE) 2,051 5.1 -6.9°
Enters shadow 19:12:48 - 111° (ESE) 2,281 5.4 -7.0°
